Szeged, Hungary
Current Conditions -  °F | °C
As of 8:15 PM on Thursday 30 Oct 2014 (Local Time) from LHUD Reporting Station
Broken Clouds Broken Clouds  
Wind Chill: 46°   Ceiling: 3000
Heat Index: 46°   Visibility: 5mi
Dew Point: 43°   Wind: 3mph
Humidity: 87%   Direction: 300°WNW
Pressure: 30.33"   Gusts: NA
Location:  46.26°N, 20.16°E
Report Text: LHUD 301815Z 30003KT 8000 BKN030 08/06 Q1027
Loading
Personal Weather Stations






























Interactive Weather Map
Tropical Storm Tracking
New forecast layout! Learn more

10-Day Weather Forecast

Advertisements
Track Severe Weather on mobile